Regional Weather Roundup
Issued by NWS

Home | Current Version | Previous Version | Graphics & Text | Print | Product List | Glossary On
Versions: 1 2 3 4 5 6 7 8 9 10 11 12 13 14 15 16 17 18 19 20 21 22 23 24 25 26 27 28 29 30 31 32 33 34 35 36 37 38 39 40 41 42 43 44 45 46 47 48 49 50
000
ASUS43 KMPX 261201
RWRMN
WEATHER ROUNDUP FOR MINNESOTA
NATIONAL WEATHER SERVICE TWIN CITIES/CHANHASSEN MN
600 AM CST MON JAN 26 2015


NOTE: "FAIR" INDICATES FEW OR NO CLOUDS BELOW 12,000 FEET WITH NO
SIGNIFICANT WEATHER AND/OR OBSTRUCTIONS TO VISIBILITY. N/A MEANS
CURRENT SKY AND/OR WEATHER CONDITIONS ARE NOT AVAILABLE.

MNZ060>063-068>070-261300-
   Twin Cities Metro

CITY           SKY/WX    TMP DP  RH WIND       PRES   REMARKS
TWIN CITIES    CLOUDY    27  23  85 SE10      29.74F WCI  17
6HR MIN TEMP:  22; 6HR MAX TEMP:  27; 6HR PCP: TRACE;

ST PAUL        CLOUDY    26  23  88 SE10      29.76F WCI  16
CRYSTAL        CLOUDY    28  23  81 SE7       29.73F WCI  21
BLAINE         CLOUDY    28  27  93 SE9       29.73S WCI  20
LAKEVILLE        N/A     27  25  93 S5        29.75F WCI  21
EDEN PRAIRIE   CLOUDY    29  25  85 SE8       29.73F WCI  21
6HR MIN TEMP:  21; 6HR MAX TEMP:  29; 6HR PCP: TRACE;

SOUTH ST PAUL  CLOUDY    28  24  88 S6        29.75F WCI  21
LAKE ELMO      CLOUDY    27  25  93 S7        29.76F WCI  19
$$
MNZ001>005-007-008-013>017-022>024-027-028-261300-
   Northwest Minnesota

CITY           SKY/WX    TMP DP  RH WIND       PRES   REMARKS
BEMIDJI        CLOUDY    32  29  89 W13       29.57S WCI  22
HALLOCK        CLOUDY    37  32  81 NW18G25   29.60R
ROSEAU         CLOUDY    32  27  80 W10G18    29.56R WCI  24
WARROAD        CLOUDY    32  28  86 W10G17    29.54S WCI  24
THIEF RVR FALL MOCLDY    32  28  86 W14       29.61S WCI  22
CROOKSTON      CLEAR     28  27  93 NW10      29.64S WCI  19
FOSSTON        CLOUDY    27  25  93 W7        29.62S WCI  19
DETROIT LAKES  MOCLDY    32  32 100 NW14      29.65R WCI  22
MOORHEAD       MOCLDY    36  34  93 NW12      29.68R
PARK RAPIDS    CLOUDY    31  27  85 W8        29.61R WCI  23
MAHNOMEN       FAIR      26  25  96 W7        29.63S WCI  18
$$
MNZ006-009>011-018-025>026-261300-
   North Central Minnesota

CITY           SKY/WX    TMP DP  RH WIND       PRES   REMARKS
BAUDETTE       CLOUDY    29  26  89 W5        29.52S WCI  24
FLAG ISLAND    CLOUDY    28  27  93 W7        29.51S WCI  21
INTL FALLS     LGT SNOW  23  21  92 VRB5      29.54F FOG     WCI  17
6HR MIN TEMP:  21; 6HR MAX TEMP:  23; 6HR PCP:  0.13;

WASKISH        CLOUDY    30  28  93 SW8       29.55F WCI  23
BIG FORK       CLOUDY    25  23  93 SW3       29.58S
LONGVILLE      CLOUDY    27  25  93 S5        29.61F WCI  21
GRAND RAPIDS   CLOUDY    25  21  86 S8        29.59F WCI  16
CRANE LAKE     CLOUDY    19  18  93 S7        29.60F WCI  10
ORR            CLOUDY    21  18  86 S10G16    29.55F FOG     WCI  10
COOK           CLOUDY    21  19  93 S8        29.60F FOG     WCI  12
WALKER         CLOUDY    28  25  87 SW7       29.59F WCI  21
$$
MNZ012-019>021-037-261300-
   Northeast Minnesota

CITY           SKY/WX    TMP DP  RH WIND       PRES   REMARKS
DULUTH         FRZ DRZL  20  17  88 S13       29.65F WCI   7
6HR MIN TEMP:  19; 6HR MAX TEMP:  20; 6HR PCP:  0.09;

ELY            LGT SNOW  19  16  86 S10       29.61S WCI   8
HIBBING        CLOUDY    22  19  89 S6        29.62F FOG     WCI  14
EVELETH        LGT SNOW  21  19  93 S7        29.64F WCI  13
DULUTH HARBOR  LGT SNOW  23  19  86 CALM      29.73S
TWO HARBORS    LGT SNOW  23  18  80 S8        29.67F WCI  14
SILVER BAY     LGT SNOW  21  19  93 S7        29.67F WCI  13
GRAND MARAIS     N/A     25  22  88 S17       29.74F WCI  12
G MARAIS ARPRT LGT SNOW  18  14  86 S9        29.65F VSB 3/4 WCI   6
$$
MNZ029>031-032-039>041-046>048-054>057-064-261300-
   West Central Minnesota

CITY           SKY/WX    TMP DP  RH WIND       PRES   REMARKS
FERGUS FALLS   MOCLDY    28  27  93 W8        29.70R WCI  20
WHEATON        PTCLDY    36  30  80 W14       29.72S
MORRIS         PTCLDY    36  32  87 NW15      29.67S
ALEXANDRIA     PTCLDY    32  29  88 W10       29.65F WCI  24
ELBOW LAKE     FAIR      31  30  93 NW9       29.67S WCI  23
WADENA         PTCLDY    28  27  93 W8        29.63S WCI  20
GLENWOOD       PTCLDY    30  28  93 W12       29.65F WCI  21
APPLETON       PTCLDY    36  30  80 W10       29.70R
BENSON         CLOUDY    32  28  86 NW10      29.68F WCI  24
ORTONVILLE     MOCLDY    37  30  75 NW13G20   29.70R
MADISON        PTCLDY    41  34  75 W17       29.70R
WILLMAR        FAIR      36  30  80 W9        29.69S
$$
MNZ033>034-036-042>043-049>051-058-059-261300-
   Central Minnesota

CITY           SKY/WX    TMP DP  RH WIND       PRES   REMARKS
ST CLOUD       CLOUDY    28  26  92 SE7       29.68F WCI  21
6HR MIN TEMP:  23; 6HR MAX TEMP:  28; 6HR PCP: TRACE;

SAUK CENTRE    CLOUDY    32  30  93 W8        29.65F WCI  25
PAYNESVILLE    MOCLDY    31  29  93 S12       29.66F WCI  22
AITKIN         CLOUDY    27  21  80 S7        29.63S WCI  19
PINE RIVER     CLOUDY    28  27  93 CALM      29.66F
BRAINERD       CLOUDY    27  25  92 S8        29.65S WCI  19
STAPLES        CLOUDY    30  27  86 SW5       29.63S WCI  25
LONG PRAIRIE   CLOUDY    32  30  93 SW8       29.65R WCI  25
LITTLE FALLS   CLOUDY    28  27  93 CALM      29.67R
LITCHFIELD     CLOUDY    34  34 100 SW3       29.69F
BUFFALO        CLOUDY    28  26  91 SE3       29.71F
MAPLE LAKE     CLOUDY    31  29  96 S5        29.70F WCI  26
$$
MNZ037-044-045-052-053-261300-
   East Central Minnesota

CITY           SKY/WX    TMP DP  RH WIND       PRES   REMARKS
PRINCETON      CLOUDY    27  25  93 S8        29.68F WCI  18
MORA           CLOUDY    23  21  93 S7        29.71F WCI  15
CAMBRIDGE      CLOUDY    27  19  74 S10       29.67F WCI  17
RUSH CITY      CLOUDY    22  20  91 S9        29.70F WCI  12
MOOSE LAKE     CLOUDY    23  19  86 SW6       29.67F WCI  16
HINCKLEY       CLOUDY    23  21  93 S9        29.70F WCI  13
CLOQUET        LGT SNOW  19  18  93 S6        29.66F WCI  11
MCGREGOR       CLOUDY    25  21  86 S7        29.65F WCI  17
$$
MNZ071>073-080-081-089-090-097-098-261300-
   Southwest Minnesota

CITY           SKY/WX    TMP DP  RH WIND       PRES   REMARKS
MONTEVIDEO     PTCLDY    36  36 100 NW9       29.71R
GRANITE FALLS  MOCLDY    35  31  87 W13       29.71S WCI  26
CANBY          PTCLDY    38  32  79 W18       29.72F
MARSHALL       CLOUDY    37  28  70 W22G28    29.72R
REDWOOD FALLS  CLOUDY    36  31  82 SW17      29.68R
OLIVIA         MOCLDY    32  32 100 W10       29.70R WCI  24
PIPESTONE      PTCLDY    34  30  86 W14       29.75S WCI  24
WINDOM         CLOUDY    34  32  93 SW18G25   29.71F WCI  23
WORTHINGTON    CLOUDY    34  28  80 SW15      29.76R WCI  24
JACKSON        CLOUDY    34  32  93 SW17      29.73F WCI  23
TRACY          CLOUDY    37  32  83 W17G23    29.71S
SLAYTON        CLOUDY    33  31  90 SW23G29   29.72F WCI  21
$$
MNZ065>067-074>077-082>085-091>093-261300-
   South Central Minnesota

CITY           SKY/WX    TMP DP  RH WIND       PRES   REMARKS
MANKATO        CLOUDY    32  28  86 SW12      29.72R WCI  23
NEW ULM        CLOUDY    34  30  86 SW18      29.68S WCI  23
ST JAMES       CLOUDY    36  32  87 S17G25    29.69F
FAIRMONT       CLOUDY    34  28  80 SW23      29.71F WCI  22
GLENCOE        CLOUDY    33  32  96 S3        29.73R
FARIBAULT      CLOUDY    30  28  93 S8        29.75R WCI  23
OWATONNA       CLOUDY    30  27  86 S12       29.75R WCI  21
WASECA         CLOUDY    32  30  93 S12       29.75R WCI  23
ALBERT LEA     CLOUDY    30  28  93 S10G22    29.72F WCI  21
$$
MNZ078>079-086>088-094>096-261300-
   Southeast Minnesota

CITY           SKY/WX    TMP DP  RH WIND       PRES   REMARKS
ROCHESTER      LGT SNOW  26  23  88 S17G26    29.76F FOG     WCI  13
6HR MIN TEMP:  23; 6HR MAX TEMP:  26; 6HR PCP:  0.02;

RED WING       FLURRIES  27  25  93 SE5       29.79F WCI  21
STANTON        CLOUDY    30  26  84 S6        29.77R WCI  24
DODGE CENTER   MIX PCPN  27  27 100 S14       29.75F WCI  15
WINONA         LGT SNOW  28  23  80 SE6       29.86S WCI  22
AUSTIN         MIX PCPN  27  27 100 S14       29.75F WCI  15
PRESTON        LGT SNOW  24  23  94 S12       29.80F WCI  13
$$
ABBREVIATIONS USED IN REMARKS
   TC - TEMPERATURES IN CELSIUS
  WCI - WIND CHILL INDEX
   HX - HEAT INDEX
  VSB - VISIBILITY
$$


USA.gov is the U.S. government's official web portal to all federal, state and local government web resources and services.